Location: Chisholm
(54.9102°N, 114.1701°W)
Time: 03:05:44
(UTC+00:00)

N. Korean satellite - Visible Passes

Search period start: 02 October 2022 00:00
Search period end: 12 October 2022 00:00
Orbit: 426 x 468 km, 97.3° (Epoch: 01 October)

Date Brightness Start Highest point End Pass type
(mag) Time Alt. Az. Time Alt. Az. Time Alt. Az.
02 Oct 9.6 12:02:39 10° NE 12:04:44 16° E 12:06:48 10° SE visible
03 Oct 6.9 12:58:36 10° NNE 13:01:52 64° E 13:05:06 10° S visible
04 Oct 8.9 12:23:01 10° NE 12:25:49 25° E 12:28:34 10° SSE visible
05 Oct 9.9 11:48:30 10° ENE 11:49:31 11° E 11:50:33 10° ESE visible
06 Oct 7.8 12:43:29 10° NNE 12:46:38 42° E 12:49:45 10° S visible
07 Oct 9.5 12:08:02 10° NE 12:10:21 18° E 12:12:40 10° SE visible
08 Oct 6.6 13:03:55 10° NNE 13:07:12 74° ESE 13:10:29 10° S visible
09 Oct 8.6 12:28:02 10° NE 12:30:56 28° E 12:33:50 10° SSE visible
10 Oct 9.8 11:52:58 10° ENE 11:54:27 12° E 11:55:57 10° ESE visible
11 Oct 7.5 12:48:05 10° NNE 12:51:17 47° E 12:54:28 10° S visible
